Location: Vancouver
(49.2500°N, 123.1330°W)
Time: 04:53:11
(UTC-07:00)

YAOGAN 6 - Visible Passes

Search period start: 28 April 2015 00:00
Search period end: 08 May 2015 00:00
Orbit: 476 x 518 km, 97.2° (Epoch: 28 April)

Date Brightness Start Highest point End Pass type
(mag) Time Alt. Az. Time Alt. Az. Time Alt. Az.
28 Apr 5.5 00:16:01 10° W 00:16:24 10° W 00:16:34 10° W visible
28 Apr 3.1 22:20:26 33° ESE 22:21:38 46° ENE 22:25:16 10° N visible
28 Apr 4.9 23:55:03 16° W 23:55:39 17° W 23:58:04 10° NW visible
29 Apr 3.9 21:59:40 21° ESE 22:01:14 28° ENE 22:04:30 10° N visible
29 Apr 4.3 23:34:17 25° WSW 23:34:57 26° W 23:38:10 10° NW visible
30 Apr 4.5 21:38:53 13° E 21:40:52 18° ENE 21:43:31 10° NNE visible
30 Apr 3.5 23:13:30 37° SW 23:14:20 44° W 23:17:57 10° NNW visible
01 May 4.9 21:19:10 10° E 21:20:31 12° ENE 21:22:02 10° NE visible
01 May 2.7 22:52:42 45° S 22:53:46 76° WSW 22:57:32 10° NNW visible
02 May 2.7 22:31:54 36° SE 22:33:15 62° ENE 22:36:58 10° N visible
03 May 5.3 00:06:31 12° WSW 00:07:26 12° W 00:08:59 10° WNW visible
03 May 3.5 22:11:06 24° ESE 22:12:46 37° ENE 22:16:15 10° N visible
03 May 4.7 23:45:42 18° WSW 23:46:39 20° W 23:49:26 10° NW visible
04 May 4.2 21:50:16 15° ESE 21:52:20 23° ENE 21:55:21 10° NNE visible
04 May 4.0 23:24:53 27° SW 23:25:57 32° W 23:29:20 10° NNW visible
05 May 4.7 21:29:47 10° E 21:31:56 15° ENE 21:34:10 10° NNE visible
05 May 3.1 23:04:03 36° SSW 23:05:18 55° W 23:08:58 10° NNW visible
06 May 2.6 22:43:13 35° SSE 22:44:42 85° ENE 22:48:26 10° NNW visible
07 May 3.0 22:22:22 26° SE 22:24:10 49° ENE 22:27:45 10° N visible
